軌道要素
Epoch 2010 May 4.0 TT = JDT 2455320.5
T 2010 May 15.56068 TT MPC
q 1.5914511 (2000.0) P Q
z +0.0148611 Peri. 318.28909 +0.70250096 +0.71132322
+/-0.000007 Node 3.86983 +0.70877906 -0.70214948
e 0.9763493 Incl. 160.41718 +0.06422340 -0.03170790
From 60 observations 2010 Feb. 18-Sept. 16, mean residual 0".8.
|